This demonstration page uses our WeatherBlox Daily Observations layout. Learn more.

Left ArrowRight Arrow

44.8408, -93.29828

Hourly Observations for September 13, 2016

Temp ( °F °C ) Dew Point ( °F °C ) Humidity (%) Winds ( mph kmh ) Pressure ( in mb ) Visibility ( mi km ) Precip ( " mm )
12:48 am 00:48 Cloudy 64 18 55 13 73 73 N 20 31 29.94 1014 10 16 0.00 0.00
12:53 am 00:53 Cloudy 65 18.3 54 12.2 68 68 N 10 17 29.98 1015 10 16 0.00 0.00
1:53 am 01:53 Cloudy 64 17.8 55 12.8 73 73 NNW 8 13 30.00 1016 10 16 0.00 0.00
2:53 am 02:53 Cloudy 64 17.8 53 11.7 68 68 NNW 12 19 30.01 1016 10 16 0.00 0.00
3:53 am 03:53 Cloudy 62 16.7 49 9.4 62 62 NNW 16 26 30.02 1017 10 16 0.00 0.00
4:53 am 04:53 Cloudy 60 15.6 50 10 70 70 N 14 22 30.03 1017 10 16 0.00 0.00
5:53 am 05:53 Partly Cloudy 58 14.4 49 9.4 72 72 N 12 19 30.06 1018 10 16 0.00 0.00
6:53 am 06:53 Sunny 56 13.3 50 10 81 81 NNW 8 13 30.08 1019 10 16 0.00 0.00
7:53 am 07:53 Mostly Sunny 57 13.9 50 10 78 78 NW 10 17 30.13 1020 10 16 0.00 0.00
8:53 am 08:53 Mostly Sunny 59 15 49 9.4 69 69 NNW 10 17 30.14 1021 10 16 0.00 0.00
9:53 am 09:53 Mostly Sunny 60 15.6 49 9.4 67 67 N 12 19 30.13 1020 10 16 0.00 0.00
10:53 am 10:53 Mostly Sunny 62 16.7 48 8.9 60 60 N 8 13 30.19 1022 10 16 0.00 0.00
11:53 am 11:53 Partly Cloudy 63 17.2 50 10 63 63 NW 12 19 30.19 1023 10 16 0.00 0.00
12:53 pm 12:53 Partly Cloudy 65 18.3 48 8.9 54 54 NNW 15 24 30.16 1021 10 16 0.00 0.00
1:53 pm 13:53 Partly Cloudy 66 18.9 47 8.3 50 50 NNW 10 17 30.16 1021 10 16 0.00 0.00
2:53 pm 14:53 Mostly Cloudy 64 17.8 46 7.8 52 52 NW 14 22 30.16 1021 10 16 0.00 0.00
3:53 pm 15:53 Mostly Cloudy 64 17.8 46 7.8 52 52 NNW 15 24 30.16 1021 10 16 0.00 0.00
4:53 pm 16:53 Cloudy 63 17.2 45 7.2 52 52 NNW 12 19 30.17 1022 10 16 0.00 0.00
5:53 pm 17:53 Mostly Cloudy 62 16.7 46 7.8 56 56 NNW 9 15 30.18 1022 10 16 0.00 0.00
6:53 pm 18:53 Mostly Cloudy 60 15.6 46 7.8 60 60 NNE 7 11 30.20 1023 10 16 0.00 0.03
7:53 pm 19:53 Mostly Cloudy 60 15.6 46 7.8 60 60 N 7 11 30.21 1023 10 16 0.00 0.00
8:53 pm 20:53 Cloudy 59 15 45 7.2 60 60 N 7 11 30.23 1024 10 16 0.00 0.03
9:53 pm 21:53 Mostly Cloudy 58 14.4 45 7.2 62 62 N 6 9 30.25 1024 10 16 0.00 0.00
10:53 pm 22:53 Mostly Cloudy 58 14.4 44 6.7 60 60 N 6 9 30.27 1025 10 16 0.00 0.00
11:53 pm 23:53 Mostly Cloudy 58 14.4 44 6.7 60 60 N 8 13 30.28 1025 10 16 0.00 0.00

Powered by AerisWeather